Weather History for Needles, CA

Change the Weather History Date:

Wednesday, July 16, 2014

  Actual Average Record
Temperature  
Mean Temperature 99 °F -  
Max Temperature 111 °F 108 °F 122 °F (2005)
Min Temperature 89 °F 83 °F 75 °F (1972)
Cooling Degree Days 34    
Growing Degree Days 49 (Base 50)    
Moisture  
Dew Point 46 °F    
Average Humidity 17    
Maximum Humidity 30    
Minimum Humidity 9    
Precipitation  
Precipitation 0.00 in - - ()
Sea Level Pressure  
Sea Level Pressure 29.68 in    
Wind  
Wind Speed 10 mph (SW)    
Max Wind Speed 16 mph    
Max Gust Speed 22 mph    
Visibility 10 miles    
Events      
Averages and records for this station are not official NWS values.
T = Trace of Precipitation, MM = Missing Value Source: NWS Daily Summary

Daily Weather History Graph

Daily Weather History Graph

Search for Another Location

Airport:

Trip Planner

Search our weather history database for the weather conditions in past years. The results will help you decide how hot, cold, wet, or windy it might be!

Date:

Astronomy

Jul. 16, 2014 Rise Set
Actual Time 5:37 AM PDT 7:51 PM PDT
Civil Twilight 5:08 AM PDT 8:20 PM PDT
Nautical Twilight 4:33 AM PDT 8:55 PM PDT
Astronomical Twilight 3:54 AM PDT 9:33 PM PDT
Moon 10:53 PM PDT (7/16) 10:31 AM PDT (7/16)
Length of Visible Light 15h 12m
Length of Day
14h 14m
Waning Gibbous, 75% of the Moon is Illuminated
Jul 16
Waning Gibbous
Jul 18
Last Quarter
Jul 26
New
Aug 3
First Quarter
Aug 10
Full

Hourly Weather History & Observations

Time (PDT) Temp. Heat Index Dew Point Humidity Pressure Visibility Wind Dir Wind Speed Gust Speed Precip Events Conditions
12:56 AM 95.0 °F - 51.1 °F 22% 29.73 in 10.0 mi WSW 12.7 mph - N/A   Clear
1:56 AM 93.9 °F - 52.0 °F 24% 29.72 in 10.0 mi WSW 12.7 mph - N/A   Clear
2:56 AM 93.0 °F 90.6 °F 53.1 °F 26% 29.72 in 10.0 mi Variable 3.5 mph - N/A   Clear
3:56 AM 91.9 °F 89.5 °F 53.1 °F 27% 29.72 in 10.0 mi SW 5.8 mph - N/A   Clear
4:56 AM 89.1 °F 86.9 °F 54.0 °F 30% 29.73 in 10.0 mi WSW 8.1 mph - N/A   Clear
5:56 AM 90.0 °F 87.9 °F 55.0 °F 30% 29.73 in 10.0 mi West 9.2 mph - N/A   Clear
6:56 AM 90.0 °F 87.9 °F 55.0 °F 30% 29.75 in 10.0 mi SW 5.8 mph - N/A   Clear
7:56 AM 95.0 °F 92.7 °F 54.0 °F 25% 29.76 in 10.0 mi SW 9.2 mph - N/A   Clear
8:56 AM 97.0 °F 94.6 °F 53.1 °F 23% 29.76 in 10.0 mi SW 6.9 mph - N/A   Clear
9:56 AM 100.0 °F - 51.1 °F 19% 29.76 in 10.0 mi SSW 9.2 mph - N/A   Clear
10:56 AM 102.0 °F - 50.0 °F 17% 29.75 in 10.0 mi Variable 4.6 mph - N/A   Clear
11:56 AM 105.1 °F - 46.9 °F 14% 29.73 in 10.0 mi SW 9.2 mph - N/A   Clear
12:56 PM 107.1 °F - 44.1 °F 12% 29.71 in 10.0 mi SW 11.5 mph 20.7 mph N/A   Clear
1:56 PM 109.0 °F - 39.9 °F 10% 29.68 in 10.0 mi WSW 10.4 mph 17.3 mph N/A   Clear
2:56 PM 109.0 °F - 39.9 °F 10% 29.66 in 10.0 mi South 8.1 mph - N/A   Clear
3:56 PM 109.0 °F - 41.0 °F 10% 29.63 in 10.0 mi SSW 12.7 mph 21.9 mph N/A   Clear
4:56 PM 109.9 °F - 41.0 °F 10% 29.61 in 10.0 mi WSW 13.8 mph 21.9 mph N/A   Clear
5:56 PM 109.0 °F - 39.0 °F 9% 29.59 in 10.0 mi WSW 10.4 mph - N/A   Clear
6:56 PM 108.0 °F - 37.9 °F 9% 29.59 in 10.0 mi SW 11.5 mph - N/A   Clear
7:56 PM 106.0 °F - 41.0 °F 11% 29.59 in 10.0 mi WSW 10.4 mph - N/A   Clear
8:56 PM 102.9 °F - 43.0 °F 13% 29.60 in 10.0 mi SW 10.4 mph - N/A   Clear
9:56 PM 100.9 °F - 35.1 °F 10% 29.62 in 10.0 mi SW 16.1 mph - N/A   Clear
10:56 PM 100.9 °F - 33.1 °F 9% 29.62 in 10.0 mi SW 16.1 mph - N/A   Clear
11:56 PM 98.1 °F - 34.0 °F 11% 29.63 in 10.0 mi WSW 15.0 mph - N/A   Clear